Location: Pace/Milton
(30.6162°N, 87.1503°W)
Time: 08:11:42
(UTC-06:00)

Hubble Space Telescope - Pass Details

Date: 03 December 2021
Orbit: 535 x 538 km, 28.5° (Epoch: 23 January)

Event Time Altitude Azimuth Distance (km) Brightness Sun altitude
Exits shadow 05:39:38 10° 254° (WSW) 1,775 2.9 -10.8°
Reaches altitude 10° 05:39:39 10° 254° (WSW) 1,773 2.9 -10.8°
Maximum altitude 05:42:55 23° 201° (SSW) 1,155 2.5 -10.2°
Drops below altitude 10° 05:46:11 10° 148° (SSE) 1,770 4.3 -9.5°
Sets 05:48:46 0° 134° (SE) 2,659 5.7 -9.0°
